This is the latest recevied weather packets stored in our database for station/object WB5CFT. If no packets are shown the sender has not sent any weather packets the latest 1 day(s).
| Time | Temp. | Humidity | Pressure | Rain* | Wind** | Luminosity | Snow |
|---|---|---|---|---|---|---|---|
| 1778001304 | 24.44° C | 34% | 1011.8 hPa | 0 mm | 1.79 m/s, 254° | 229 W/m² | - |
| 1778001001 | 24.44° C | 35% | 1012.1 hPa | 0 mm | 0.89 m/s, 232° | 257 W/m² | - |
| 1778000698 | 23.89° C | 34% | 1011.7 hPa | 0 mm | 1.79 m/s, 255° | 238 W/m² | - |
| 1778000393 | 23.89° C | 35% | 1011.8 hPa | 0 mm | 1.79 m/s, 235° | 162 W/m² | - |
| 1778000090 | 23.89° C | 34% | 1011.8 hPa | 0 mm | 2.24 m/s, 214° | 166 W/m² | - |
| 1777999785 | 23.89° C | 34% | 1011.7 hPa | 0 mm | 3.58 m/s, 250° | 172 W/m² | - |
| 1777999482 | 23.89° C | 35% | 1011.8 hPa | 0 mm | 0 m/s | 195 W/m² | - |
| 1777999180 | 23.89° C | 34% | 1011.7 hPa | 0 mm | 4.02 m/s, 269° | 167 W/m² | - |
| 1777998878 | 23.89° C | 35% | 1011.7 hPa | 0 mm | 0.45 m/s, 250° | 177 W/m² | - |
| 1777998577 | 23.89° C | 34% | 1011.6 hPa | 0 mm | 1.34 m/s, 247° | 176 W/m² | - |
| 1777998273 | 23.33° C | 35% | 1011.6 hPa | 0 mm | 0 m/s | 171 W/m² | - |
| 1777997970 | 23.33° C | 33% | 1011.7 hPa | 0 mm | 0.45 m/s, 202° | 164 W/m² | - |
| 1777997666 | 23.33° C | 32% | 1011.6 hPa | 0 mm | 0.45 m/s, 177° | 180 W/m² | - |
| 1777997364 | 23.33° C | 33% | 1011.7 hPa | 0 mm | 0.45 m/s, 181° | 199 W/m² | - |
| 1777997062 | 23.33° C | 32% | 1011.4 hPa | 0 mm | 0.89 m/s, 163° | 174 W/m² | - |
| 1777996758 | 23.33° C | 32% | 1011.6 hPa | 0 mm | 1.79 m/s, 194° | 173 W/m² | - |
| 1777996455 | 23.33° C | 34% | 1011.6 hPa | 0 mm | 0 m/s | 165 W/m² | - |
| 1777996152 | 22.78° C | 34% | 1011.5 hPa | 0 mm | 0.89 m/s, 183° | 162 W/m² | - |
| 1777995848 | 22.78° C | 34% | 1011.5 hPa | 0 mm | 0.89 m/s, 204° | 146 W/m² | - |
| 1777995544 | 22.78° C | 34% | 1011.6 hPa | 0 mm | 0.89 m/s, 183° | 146 W/m² | - |
| 1777995241 | 22.78° C | 34% | 1011.5 hPa | 0 mm | 0 m/s | 137 W/m² | - |
| 1777994938 | 22.78° C | 34% | 1011.5 hPa | 0 mm | 0.89 m/s, 195° | 125 W/m² | - |
| 1777994636 | 22.22° C | 34% | 1011.4 hPa | 0 mm | 0 m/s | 109 W/m² | - |
| 1777994335 | 22.22° C | 35% | 1011.6 hPa | 0 mm | 0 m/s | 99 W/m² | - |
| 1777994032 | 22.22° C | 34% | 1011.7 hPa | 0 mm | 1.34 m/s, 163° | 108 W/m² | - |
* Rain latest hour (hover to see other rain measurements)
** Current wind speed in m/s (hover to see current wind gust speed)